Ashland, WI

11:58 AM CDT on September 20, 2017 (GMT -0500)
Kennedy Memorial

Weather History for KASX - December, 2013

Change the Weather History Date:

Friday, December 27, 2013

  Actual Average Record
Temperature  
Mean Temperature 14 °F -  
Max Temperature 34 °F 24 °F 44 °F (2003)
Min Temperature -7 °F 5 °F -23 °F (1964)
Degree Days  
Heating Degree Days 52    
Moisture  
Dew Point 13 °F    
Average Humidity 81    
Maximum Humidity 92    
Minimum Humidity 70    
Precipitation  
Precipitation 0.00 in - - ()
Sea Level Pressure  
Sea Level Pressure 30.01 in    
Wind  
Wind Speed 5 mph (SW)    
Max Wind Speed 17 mph    
Max Gust Speed 29 mph    
Visibility 9 miles    
Events      
Averages and records for this station are not official NWS values.
T = Trace of Precipitation, MM = Missing Value Source: NWS Daily Summary

Daily Weather History Graph

Daily Weather History Graph

Search for Another Location

Airport or City:

Trip Planner

Search our weather history database for the weather conditions in past years. The results will help you decide how hot, cold, wet, or windy it might be!

Date:

Astronomy

Dec. 27, 2013 Rise Set
Actual Time 7:47 AM CST 4:22 PM CST
Civil Twilight 7:12 AM CST 4:57 PM CST
Nautical Twilight 6:33 AM CST 5:36 PM CST
Astronomical Twilight 5:56 AM CST 6:13 PM CST
Moon 2:06 AM CST (12/27) 12:44 PM CST (12/27)
Length of Visible Light 9h 45m
Length of Day
8h 35m
Waning Crescent, 28% of the Moon is Illuminated
Dec 27
Waning Crescent
Jan 1
New
Jan 7
First Quarter
Jan 15
Full
Jan 23
Last Quarter

Hourly Weather History & Observations

Time (CST) Temp. Windchill Dew Point Humidity Pressure Visibility Wind Dir Wind Speed Gust Speed Precip Events Conditions
12:53 AM -6.0 °F - -11.0 °F 79% 30.22 in 10.0 mi Calm Calm - N/A   Clear
1:53 AM -5.1 °F - -9.9 °F 80% 30.22 in 10.0 mi Calm Calm - N/A   Clear
2:53 AM -7.1 °F -18.1 °F -9.9 °F 87% 30.21 in 10.0 mi WSW 4.6 mph - N/A   Clear
3:24 AM -2.2 °F -10.4 °F -7.6 °F 78% 30.12 in 10.0 mi SW 3.5 mph - N/A   Mostly Cloudy
3:42 AM -2.2 °F - -5.8 °F 85% 30.11 in 10.0 mi Calm Calm - N/A   Scattered Clouds
3:53 AM -2.0 °F -10.1 °F -6.0 °F 83% 30.18 in 10.0 mi WSW 3.5 mph - N/A   Clear
4:13 AM -2.2 °F -12.5 °F -5.8 °F 85% 30.11 in 10.0 mi WSW 4.6 mph - N/A   Scattered Clouds
4:22 AM -0.4 °F - -4.0 °F 85% 30.10 in 10.0 mi Calm Calm - N/A   Mostly Cloudy
4:53 AM 1.9 °F -5.6 °F -2.0 °F 83% 30.16 in 10.0 mi SSW 3.5 mph - N/A   Overcast
5:53 AM 7.0 °F - 3.0 °F 84% 30.13 in 10.0 mi Calm Calm - N/A   Overcast
6:53 AM 16.0 °F - 12.0 °F 84% 30.12 in 8.0 mi Calm Calm - N/A   Overcast
7:06 AM 12.2 °F - 10.4 °F 92% 30.05 in 8.0 mi Calm Calm - N/A   Overcast
7:53 AM 15.1 °F 9.4 °F 12.0 °F 88% 30.09 in 9.0 mi ESE 3.5 mph - N/A   Mostly Cloudy
8:07 AM 15.8 °F 10.2 °F 12.2 °F 86% 30.01 in 7.0 mi SSE 3.5 mph - N/A   Scattered Clouds
8:53 AM 21.9 °F 11.7 °F 19.0 °F 89% 30.06 in 6.0 mi SSW 9.2 mph - N/A   Mostly Cloudy
9:53 AM 26.1 °F 13.6 °F 21.9 °F 84% 30.02 in 7.0 mi SSW 16.1 mph 23.0 mph N/A   Overcast
10:53 AM 27.0 °F 14.3 °F 23.0 °F 85% 29.96 in 8.0 mi SSW 17.3 mph 28.8 mph N/A   Overcast
11:26 AM 28.4 °F 17.5 °F 23.0 °F 80% 29.86 in 9.0 mi SSW 13.8 mph 23.0 mph N/A   Overcast
11:53 AM 28.9 °F 18.2 °F 23.0 °F 78% 29.90 in 10.0 mi SSW 13.8 mph 24.2 mph N/A   Overcast
12:53 PM 32.0 °F 22.1 °F 25.0 °F 75% 29.84 in 10.0 mi SW 13.8 mph 23.0 mph N/A   Overcast
1:53 PM 32.0 °F 21.2 °F 25.0 °F 75% 29.82 in 10.0 mi SSW 16.1 mph 21.9 mph N/A   Clear
2:53 PM 33.1 °F 24.9 °F 26.1 °F 75% 29.83 in 10.0 mi WSW 10.4 mph - N/A   Clear
3:53 PM 34.0 °F 25.5 °F 25.0 °F 70% 29.85 in 10.0 mi SW 11.5 mph - N/A   Clear
4:53 PM 33.1 °F 25.5 °F 26.1 °F 75% 29.86 in 10.0 mi SW 9.2 mph - N/A   Clear
5:53 PM 33.1 °F 26.1 °F 26.1 °F 75% 29.88 in 10.0 mi SW 8.1 mph - N/A   Mostly Cloudy
6:53 PM 34.0 °F 26.6 °F 27.0 °F 75% 29.90 in 10.0 mi WSW 9.2 mph - N/A   Overcast
7:53 PM 34.0 °F 26.6 °F 27.0 °F 75% 29.92 in 10.0 mi WSW 9.2 mph - N/A   Overcast
8:53 PM 34.0 °F 28.8 °F 28.0 °F 79% 29.94 in 10.0 mi WSW 5.8 mph - N/A   Overcast
9:53 PM 34.0 °F 29.8 °F 28.0 °F 79% 29.94 in 10.0 mi WSW 4.6 mph - N/A   Overcast
10:53 PM 34.0 °F 28.8 °F 28.0 °F 79% 29.95 in 10.0 mi WSW 5.8 mph - N/A   Overcast
11:53 PM 33.1 °F 27.7 °F 28.0 °F 82% 29.96 in 10.0 mi SW 5.8 mph - N/A   Overcast